Home   Weather   Magaliesburg   Past weeks
Flag for South Africa

Past Weather in Magaliesburg, South Africa — Yesterday and Last 2 Weeks

Now
61 °F

Cool.


Feels Like: 61 °F
Forecast: 81 / 56 °F
Wind: 2 mph from North

Location: Lanseria Civ / Mil

Current Time: Feb 25, 2020 at 5:37:44 am

Latest Report: Feb 25, 2020 at 4:00 am


Visibility: N/A

Pressure: 30.24 "Hg (25.51 "Hg at 1440m altitude)

Humidity: 94%

Dew Point: 59 °F

Location of MagaliesburgLocation

Past Weather in Magaliesburg — Graph

°F

Magaliesburg Temperature Yesterday

Maximum temperature yesterday: 81 °F (at 3:00 pm)
Minimum temperature yesterday: 57 °F (at 6:00 am)
Average temperature yesterday: 68 °F

High & Low Weather Summary for the Past Weeks

 TemperatureHumidityPressure
High86 °F (Feb 14, 2:00 pm)94% (Feb 22, 4:00 am)30.33 "Hg (Feb 22, 4:00 am)
Low57 °F (Feb 24, 6:00 am)31% (Feb 15, 3:00 pm)30.04 "Hg (Feb 10, 3:00 pm)
Average72 °F66%30.17 "Hg
* Reported Feb 10 4:00 am — Feb 25 4:00 am, Magaliesburg. Weather by CustomWeather, © 2020

Note: Actual official high and low records may vary slightly from our data, if they occured in-between our weather recording intervals... More about our weather records

Magaliesburg Weather History for the Previous 24 Hours

Scroll right to see more
 ConditionsComfort  
Time TempWeatherWind HumidityBarometerVisibility
4:00 am
Tue, Feb 25
61 °FCool.2 mph94%30.24 "HgN/A
3:00 am61 °FCool.2 mph94%30.24 "HgN/A
2:00 am59 °FCool.5 mph88%30.24 "HgN/A
1:00 am61 °FCool.No wind88%30.27 "HgN/A
12:00 am63 °FMild.1 mph83%30.27 "HgN/A
11:00 pm
Mon, Feb 24
63 °FMild.3 mph77%30.27 "HgN/A
10:00 pm66 °FClear.2 mph73%30.27 "Hg10 mi
9:00 pm68 °FClear.5 mph69%30.27 "Hg10 mi
8:00 pm68 °FClear.7 mph69%30.24 "Hg10 mi
7:00 pm72 °FPassing clouds.7 mph57%30.24 "HgN/A
6:00 pm77 °FPassing clouds.5 mph34%30.21 "HgN/A
5:00 pm79 °FPassing clouds.7 mph34%30.21 "HgN/A
4:00 pm79 °FPassing clouds.2 mph37%30.21 "HgN/A
3:00 pm81 °FScattered clouds.5 mph39%30.24 "HgN/A
2:00 pm77 °FScattered clouds.8 mph42%30.27 "HgN/A
1:00 pm75 °FPassing clouds.7 mph47%30.30 "HgN/A
12:00 pm73 °FPassing clouds.8 mph50%30.30 "HgN/A
11:00 am70 °FPassing clouds.8 mph53%30.33 "HgN/A
10:00 am68 °FPassing clouds.8 mph53%30.33 "HgN/A
9:48 am68 °FPassing clouds.8 mph53%30.33 "HgN/A
9:00 am64 °FPassing clouds.12 mph60%30.33 "HgN/A
8:00 am61 °FPassing clouds.16 mph63%30.33 "HgN/A
7:00 am59 °FPassing clouds.13 mph68%30.30 "HgN/A
6:00 am57 °FPassing clouds.13 mph77%30.27 "HgN/A
5:00 am59 °FClear.9 mph72%30.24 "Hg10 mi
Weather by CustomWeather, © 2020

See weather overview

Advertising